Weather in Maraza

Azerbaijan     40°31′55″N   48°55′33″E
temp.,
°C
wind,
m/s
gust,
m/s
humid.,
%
clouds,
%
prec.,
mm/h
press.,
hPa
HPBL,
m
6 may, thu
thu601:00+9se0187100 0.8 1019171
04:00+9sw1288100 0.8 1018204
07:00+9sw019173 0.0 1018234
10:00+12ssw127989 0.1 1018663
13:00+15sw456381 0.1 10161150
16:00+15wsw666374 0.1 10151213
19:00+14wsw566843 0.0 1015877
22:00+12ssw3463100 0.0 1017408
7 may, fri
fri701:00+10wsw22691 0.0 101653
04:00+9w227465 0.0 101628
07:00+10w2272100 0.0 1016112
10:00+14sw3462100 0.0 1017795
13:00+16sw3358100 0.0 10171124
16:00+17s326295 0.1 10171166
19:00+15s3373100 0.0 1018635
22:00+13s1179100 0.1 1019324
8 may, sat
sat801:00+13sw1283100 0.1 1019296
04:00+12wnw1288100 0.1 101957
07:00+12wsw1287100 0.0 1020167
10:00+15wsw3372100 0.0 1019656
13:00+19wsw65571 0.0 10181142
16:00+20sw66530 0.0 10161303
19:00+17ssw566616 0.0 1016583
22:00+13sw23831 0.0 1017209
9 may, sun
sun901:00+13w34870 0.0 101592
04:00+12wsw35883 0.0 1014132
07:00+12sw4109342 0.0 1013362
10:00+16sw811757 0.0 1011646
13:00+20sw1012614 0.0 1009922
16:00+22sw1113531 0.0 10081074
19:00+20sw91162100 0.0 1007836
22:00+16sw367939 0.0 1010287
10 may, mon
mon1001:00+16ene3981100 0.4 1013454
04:00+12nne4682100 3.6 1014369
07:00+11n3670100 0.3 1017528
10:00+9n2378100 1.3 1019375
13:00+10ese1279100 0.4 1019554
16:00+8ene2377100 0.4 1020533
19:00+8ssw1276100 0.0 1021525
22:00+7sw2386100 0.0 1023452